Voltar ao catálogo

DELTA 1 DEB

AtivoLEO
NORAD 7080·DEBRIS·🇺🇸 United States

Lançado Nov 6, 1973 de Vandenberg Space Force Base

Loading…

Próximas Passagens (próximas 24 horas)

TLE

AtualizadoSource: Space-Track

Época: Sep 14, 2026, 10:37 UTC

1 07080U 73086BY  26257.44256397  .00000493  00000-0  26936-2 0  9995
2 07080 101.9413 258.3714 0048501  22.4355 138.3456 12.70583112421440

Acompanhe DELTA 1 DEB em tempo real com AllMySat

Download on the App Store